Regional Weather Roundup
Issued by NWS

Home | Current Version | Previous Version | Graphics & Text | Print | Product List | Glossary On
Versions: 1 2 3 4 5 6 7 8 9 10 11 12 13 14 15 16 17 18 19 20 21 22 23 24 25 26 27 28 29 30 31 32 33 34 35 36 37 38 39 40 41 42 43 44 45 46 47 48 49 50
000
ASUS43 KFSD 041502
RWRSD

WEATHER ROUNDUP FOR SOUTH DAKOTA
NATIONAL WEATHER SERVICE SIOUX FALLS SD
1000 AM CDT MON MAY 04 2015

NOTE: "FAIR" INDICATES FEW OR NO CLOUDS BELOW 12,000 FEET WITH NO
SIGNIFICANT WEATHER AND/OR OBSTRUCTIONS TO VISIBILITY.


SDZ001>005-009-010-012>017-041600-
NORTHWEST AND NORTH CENTRAL SOUTH DAKOTA

CITY           SKY/WX    TMP DP  RH WIND       PRES   REMARKS
BUFFALO          N/A     47  39  74 SE21G28   30.14R
FAITH            N/A     54  25  32 S8        30.22F
MOBRIDGE       CLOUDY    50  36  58 NW6       30.22R
$$

SDZ012>016-024>037-041>051-057-063-072>074-041600-
SOUTHWEST AND SOUTH CENTRAL SOUTH DAKOTA

CITY           SKY/WX    TMP DP  RH WIND       PRES   REMARKS
RAPID CTY ARPT LGT RAIN  46  40  79 NE3       30.22S
PIERRE         CLOUDY    55  27  34 N6        30.21R
CUSTER         CLOUDY    38  33  82 E6        30.20R
PHILIP         CLOUDY    54  26  34 E6        30.21S
PINE RIDGE     CLOUDY    49  36  61 NE7       30.19R
WINNER         FAIR      57  27  31 E8        30.20R
$$

SDZ004>011-016>023-039-040-041600-
NORTHEAST SOUTH DAKOTA

CITY           SKY/WX    TMP DP  RH WIND       PRES   REMARKS
ABERDEEN       PTSUNNY   59  31  34 N3        30.20S
WATERTOWN      PTSUNNY   61  30  31 E9        30.18S
BROOKINGS      SUNNY     61  32  33 E13       30.18S
SISSETON         N/A     61  31  32 NE3       30.19S
$$

SDZ017-020-022-023-036>040-048>070-041600-
SOUTHEAST SOUTH DAKOTA

CITY           SKY/WX    TMP DP  RH WIND       PRES   REMARKS
SIOUX FALLS    PTSUNNY   63  33  32 E14       30.16R
HURON          PTSUNNY   59  33  37 NW3       30.20R
MITCHELL       SUNNY     65  30  27 NE12      30.18S
YANKTON        PTSUNNY   61  30  31 NE10      30.16R
$$

ABBREVIATIONS USED IN REMARKS
   TC - TEMPERATURE IN CELSIUS
  WCI - WIND CHILL INDEX
   HX - HEAT INDEX
  VSB - VISIBILITY




USA.gov is the U.S. government's official web portal to all federal, state and local government web resources and services.